Regional Weather Roundup
Issued by NWS Sioux Falls, SD

Home | Current Version | Previous Version | Graphics & Text | Print | Product List | Glossary On
Versions: 1 2 3 4 5 6 7 8 9 10 11 12 13 14 15 16 17 18 19 20 21 22 23 24 25 26 27 28 29 30 31 32 33 34 35 36 37 38 39 40 41 42 43 44 45 46 47 48 49 50
000
ASUS43 KFSD 231602
RWRFSD

WEATHER ROUNDUP FOR SE SOUTH DAKOTA/SW MINNESOTA/NW IOWA
NATIONAL WEATHER SERVICE SIOUX FALLS SD
1100 AM CDT TUE MAY 23 2017

NOTE: "FAIR" INDICATES FEW OR NO CLOUDS BELOW 12,000 FEET WITH NO
SIGNIFICANT WEATHER AND OR OBSTRUCTIONS TO VISIBILITY.


SDZ038>040-050-052>070-231700-
SOUTHEAST SOUTH DAKOTA

CITY           SKY/WX    TMP DP  RH WIND       PRES   REMARKS
BROOKINGS      LGT RAIN  48  43  82 N14       29.90S
CHAMBERLAIN    CLOUDY    52  42  69 N16       30.00S
HURON          CLOUDY    50  45  83 N15       29.95S
MADISON        FAIR      48  48 100 N15       29.91S
MITCHELL       CLOUDY    52  45  77 N17       29.95F
SIOUX FALLS    LGT RAIN  53  49  86 N13       29.90S
WINNER         CLOUDY    51  41  68 NW23G30   30.02S
YANKTON        CLOUDY    51  46  83 NW20      29.92F
$$

MNZ071-072-080-081-089-090-097-098-231700-
SOUTHWEST MINNESOTA

CITY           SKY/WX    TMP DP  RH WIND       PRES   REMARKS
FAIRMONT       CLOUDY    50  44  80 N14       29.84F
JACKSON        CLOUDY    50  43  76 N8        29.85S
LUVERNE        CLOUDY    50  41  71 N13       29.89S
MARSHALL       CLOUDY    50  46  86 N14       29.88S
MONTEVIDEO     DRIZZLE   50  50 100 NE15      29.87F
PIPESTONE      LGT RAIN  50  41  71 N9G18     29.88R
REDWOOD FALLS  CLOUDY    51  44  77 N9        29.85F
TRACY          DRIZZLE   50  47  88 N13       29.87S
WINDOM         CLOUDY    52  45  76 NW14      29.85S
WORTHINGTON    LGT RAIN  49  46  90 NW12      29.87S
$$

IAZ001>003-012>014-020>022-031-032-NEZ013-014-SDZ071-231700-
NORTHWEST IOWA

CITY           SKY/WX    TMP DP  RH WIND       PRES   REMARKS
CHEROKEE       CLOUDY    53  45  74 NW14G20   29.87S
DENISON        CLOUDY    54  45  71 NW13G21   29.88S
ESTHERVILLE    CLOUDY    53  47  79 N9        29.84S
LE MARS        CLOUDY    52  45  76 NW14G20   29.89F
ORANGE CITY    DRIZZLE   52  46  82 N7        29.88S
SHELDON        CLOUDY    50  46  87 N10         N/A
SIOUX CITY     CLOUDY    55  46  71 NW20      29.89F
SPENCER        CLOUDY    53  44  71 N15       29.85S
STORM LAKE       N/A     50  45  81 NW13G21   29.86S
$$

ABBREVIATIONS USED IN REMARKS
   TC - TEMPERATURE IN CELSIUS
  WCI - WIND CHILL INDEX
   HX - HEAT INDEX
  VSB - VISIBILITY





USA.gov is the U.S. government's official web portal to all federal, state and local government web resources and services.